Regional Weather Roundup
Issued by NWS

Home | Current Version | Previous Version | Text Only | Print | Product List | Glossary Off
Versions: 1 2 3 4 5 6 7 8 9 10 11 12 13 14 15 16 17 18 19 20 21 22 23 24 25 26 27 28 29 30 31 32 33 34 35 36 37 38 39 40 41 42 43 44 45 46 47 48 49 50

000
ASUS43 KLOT 261506
RWRIL

ILLINOIS REGIONAL WEATHER ROUNDUP
NATIONAL WEATHER SERVICE CHICAGO/ROMEOVILLE IL
900 AM CST FRI DEC 26 2014

NOTE: "FAIR" INDICATES FEW OR NO CLOUDS BELOW 12,000 FEET WITH NO
SIGNIFICANT WEATHER AND/OR OBSTRUCTIONS TO VISIBILITY.

* THESE STATIONS ARE NOT UNDER NWS QUALITY CONTROL. THEY ALSO MAY NOT
  REPORT WEATHER SUCH AS PRECIPITATION OR FOG.

ILZ001-002-007-009-015-016-024-261600-
NORTHWEST ILLINOIS

CITY           SKY/WX    TMP DP  RH WIND       PRES   REMARKS
MOLINE         PTSUNNY   42  34  73 SW9       29.97R
STERLING*      CLOUDY    41  34  75 SW3       29.99R
SAVANNA*       MOSUNNY   42  36  76 S8        29.97R
$$

ILZ003-004-008-010-011-017-018-261600-
NORTH CENTRAL ILLINOIS

CITY           SKY/WX    TMP DP  RH WIND       PRES   REMARKS
ROCKFORD       PTSUNNY   38  35  89 S6        30.01R WCI  33
FREEPORT*      MOSUNNY   37  34  90 S12       29.99R WCI  29
ROCHELLE*      PTSUNNY   39  36  89 S10       30.00R WCI  33
DE KALB*       PTSUNNY   36  34  92 S13       30.01R WCI  27
PERU*          PTSUNNY   40  36  85 S10       30.02R
$$

ILZ005-006-012>014-019>023-261600-
NORTHEAST ILLINOIS

CITY           SKY/WX    TMP DP  RH WIND       PRES   REMARKS
CHICAGO-OHARE  PTSUNNY   40  34  79 SW13G18   30.02R
CHICAGO-MIDWAY PTSUNNY   41  35  79 SW12G21   30.04R
AURORA         PTSUNNY   36  32  85 SE3       30.02R
LANSING*       SUNNY     38  34  83 SW10      30.06R WCI  32
JOLIET*        MOSUNNY   40  34  78 S8G17     30.04S
WAUKEGAN       SUNNY     40  34  79 SW16      29.99S
DUPAGE AIRPORT MOSUNNY   37  34  89 S9        30.01R WCI  30
KANKAKEE*      SUNNY     41  36  82 S16G23    30.07R
WHEELING       SUNNY     39  33  79 S10       30.03S WCI  32
MORRIS*        MOSUNNY   42  37  85 SW15      30.03R
ROMEOVILLE*    MOSUNNY   40  35  81 SW15      30.03S
NORTHERLY ISL    N/A     40  33  76 S9          N/A
$$

LMZ740>746-261600-
SOUTHERN LAKE MICHIGAN

STATION/POSITION SKY/WX   TEMP    WIND        PRES    VSBY  WAVE
                          AIR SEA DIR/SP/G                  HT/PER
                          (F)     (DEG/KT/KT) (MB)    (MI)  (FT/S)
WAUKEGAN HARBOR            40                   N/A
HARRISON CRIB              38     200/ 22/ 25   N/A
BURNHAM HARBOR             40     190/  7/ 12   N/A
CALUMET HARBOR             40     200/ 11/ 15 1016.2R
MICHIGAN CITY              39     160/ 14/ 18   N/A
$$

ILZ025>027-034>036-040-047-049-050-058-095>099-261600-
WEST-CENTRAL ILLINOIS

CITY           SKY/WX    TMP DP  RH WIND       PRES   REMARKS
QUINCY         CLOUDY    43  36  76 S13       30.01R
GALESBURG*     PTSUNNY   41  36  83 S13G20    29.99R
MACOMB*        CLOUDY    41  37  84 S14       30.02R
JACKSONVILLE*  MOSUNNY   45  38  77 S12       30.04S
PITTSFIELD*    PTSUNNY   46  38  75 S12G18    30.04R
$$

ILZ028>032-037-038-041>044-048-051>054-059>061-261600-
CENTRAL ILLINOIS

CITY           SKY/WX    TMP DP  RH WIND       PRES   REMARKS
PONTIAC        MOSUNNY   42  37  83 S16       30.05R
BLOOMINGTON    MOSUNNY   41  37  85 S18G25    30.05S
DECATUR        MOSUNNY   43  36  76 S15       30.08R
PEORIA         MOSUNNY   41  35  79 S13       30.02S
LACON*         PTSUNNY   42  34  74 S12G18    30.01R
LINCOLN*       MOSUNNY   42  37  81 S12       30.06S
SPRINGFIELD    MOSUNNY   44  36  73 S15       30.06R
TAYLORVILLE    SUNNY     41  36  81 S15       30.08R
$$

ILZ033-039-045-046-055>057-062-063-261600-
EAST-CENTRAL ILLINOIS

CITY           SKY/WX    TMP DP  RH WIND       PRES   REMARKS
CHAMPAIGN      SUNNY     40  35  83 S13       30.08S
DANVILLE*      SUNNY     40  35  81 SW14G23   30.08S
RANTOUL*       SUNNY     42  37  82 SW12G17   30.08S
MATTOON        SUNNY     41  35  79 S13G22    30.10R
PARIS*         SUNNY     42  38  84 S16       30.13R
$$

ILZ079-100>102-261600-
SOUTHWEST ILLINOIS

CITY           SKY/WX    TMP DP  RH WIND       PRES   REMARKS
ALTON          SUNNY     43  36  75 S14       30.09R
BELLEVILLE     SUNNY     43  39  84 S13       30.10R
CAHOKIA*       SUNNY     43  37  79 S7        30.10R
SPARTA*        SUNNY     42  36  80 S18G24    30.14R
$$

ILZ064>066-069>071-074>076-080>082-084>086-088>090-092>094-261600-
SOUTH-CENTRAL ILLINOIS

CITY           SKY/WX    TMP DP  RH WIND       PRES   REMARKS
CARBONDALE     SUNNY     45  36  70 S13       30.17R
CAIRO*         MOSUNNY   46  38  75 S9        30.22R
EFFINGHAM*     SUNNY     42  33  70 S10       30.15R
MARION         PTSUNNY   46  37  71 S14       30.19R
MT. VERNON     SUNNY     43  36  75 S10       30.17R
CENTRALIA*     SUNNY     43  35  74 S17G23    30.14R
SALEM*         SUNNY     45  38  76 S13G20    30.14R
METROPOLIS*    MOSUNNY   46  38  74 S8        30.21R
$$

ILZ067-068-072-073-078-083-087-091-261600-
SOUTHEAST ILLINOIS

CITY           SKY/WX    TMP DP  RH WIND       PRES   REMARKS
LAWRENCEVILLE  SUNNY     40  36  86 S9        30.19R
FLORA*         SUNNY     41  36  83 S10       30.16R
FAIRFIELD*     SUNNY     42  37  83 S10       30.17R
HARRISBURG*    SUNNY     45  37  75 SW8       30.21R
ROBINSON*      SUNNY     39  36  89 S9        30.18S WCI  32
CARMI*         SUNNY     44  40  86 S10       30.19R
$$

ABBREVIATIONS USED IN REMARKS
   TC - TEMPERATURE IN CELSIUS
  WCI - WIND CHILL INDEX
   HX - HEAT INDEX
  VSB - VISIBILITY
$$



USA.gov is the U.S. government's official web portal to all federal, state and local government web resources and services.